TimeCST,TemperatureF,Dew PointF,Humidity,Sea Level PressureIn,VisibilityMPH,Wind Direction,Wind SpeedMPH,Gust SpeedMPH,PrecipitationIn,Events,Conditions,WindDirDegrees,DateUTC
12:53 AM,23.0,18.0,81,30.39,10.0,Calm,Calm,-,N/A,,Overcast,0,2013-03-07 06:53:00
1:53 AM,24.1,18.0,77,30.40,10.0,Calm,Calm,-,N/A,,Overcast,0,2013-03-07 07:53:00
2:53 AM,23.0,18.0,81,30.39,10.0,Calm,Calm,-,N/A,,Overcast,0,2013-03-07 08:53:00
3:12 AM,24.8,17.6,74,30.36,10.0,Calm,Calm,-,N/A,,Overcast,0,2013-03-07 09:12:00
3:53 AM,24.1,18.0,77,30.39,9.0,Calm,Calm,-,N/A,,Overcast,0,2013-03-07 09:53:00
4:53 AM,24.1,18.0,77,30.38,10.0,East,3.5,-,N/A,,Overcast,90,2013-03-07 10:53:00
5:53 AM,23.0,18.0,81,30.39,10.0,ESE,3.5,-,N/A,,Overcast,120,2013-03-07 11:53:00
6:53 AM,21.9,18.0,85,30.42,8.0,SE,3.5,-,N/A,,Overcast,130,2013-03-07 12:53:00
7:53 AM,23.0,19.0,85,30.43,9.0,ESE,4.6,-,N/A,,Overcast,110,2013-03-07 13:53:00
8:39 AM,23.0,19.4,86,30.41,10.0,South,5.8,-,N/A,,Overcast,170,2013-03-07 14:39:00
8:53 AM,23.0,19.9,88,30.44,10.0,SSE,5.8,-,N/A,,Overcast,150,2013-03-07 14:53:00
9:53 AM,24.1,19.9,84,30.44,9.0,SE,9.2,-,N/A,,Overcast,140,2013-03-07 15:53:00
10:53 AM,25.0,21.0,85,30.43,9.0,SSE,5.8,-,N/A,,Overcast,160,2013-03-07 16:53:00
11:53 AM,27.0,21.9,81,30.42,9.0,SSW,4.6,-,N/A,,Overcast,200,2013-03-07 17:53:00
12:01 PM,26.6,21.2,80,30.39,9.0,SSW,5.8,-,N/A,,Overcast,200,2013-03-07 18:01:00
12:38 PM,28.4,21.2,74,30.37,10.0,South,4.6,-,N/A,,Scattered Clouds,170,2013-03-07 18:38:00
12:53 PM,28.0,21.9,78,30.40,10.0,South,4.6,-,N/A,,Clear,180,2013-03-07 18:53:00
1:53 PM,30.0,21.0,69,30.38,9.0,Calm,Calm,-,N/A,,Clear,0,2013-03-07 19:53:00
2:53 PM,30.9,21.0,67,30.37,10.0,SE,6.9,-,N/A,,Clear,130,2013-03-07 20:53:00
3:53 PM,32.0,23.0,69,30.37,10.0,East,6.9,-,N/A,,Clear,90,2013-03-07 21:53:00
4:53 PM,30.9,23.0,72,30.36,10.0,East,8.1,-,N/A,,Clear,90,2013-03-07 22:53:00
5:53 PM,30.9,23.0,72,30.37,10.0,East,4.6,-,N/A,,Clear,100,2013-03-07 23:53:00
6:53 PM,28.9,21.9,75,30.38,10.0,East,3.5,-,N/A,,Clear,90,2013-03-08 00:53:00
7:53 PM,28.9,23.0,78,30.36,10.0,East,6.9,-,N/A,,Clear,80,2013-03-08 01:53:00
8:53 PM,28.0,21.9,78,30.38,9.0,ESE,4.6,-,N/A,,Clear,120,2013-03-08 02:53:00
9:53 PM,27.0,23.0,85,30.36,8.0,East,6.9,-,N/A,,Clear,100,2013-03-08 03:53:00
10:53 PM,27.0,23.0,85,30.38,9.0,ESE,6.9,-,N/A,,Clear,110,2013-03-08 04:53:00
11:53 PM,27.0,24.1,89,30.39,9.0,ESE,8.1,-,N/A,,Clear,110,2013-03-08 05:53:00